Location: Tel Aviv
(32.0670°N, 34.7670°E)
Time: 18:50:58
(UTC+03:00)

CAS-4B - Visible Passes

Search period start: 16 September 2024 00:00
Search period end: 26 September 2024 00:00
Orbit: 457 x 475 km, 43.0° (Epoch: 16 September)

Date Brightness Start Highest point End Pass type
(mag) Time Alt. Az. Time Alt. Az. Time Alt. Az.
18 Sep ? 05:55:19 10° SSE 05:56:38 12° SE 05:57:57 10° ESE visible
21 Sep ? 05:50:39 10° SW 05:54:15 57° SE 05:57:53 10° ENE visible
22 Sep ? 05:18:28 21° SSW 05:20:36 48° SE 05:24:11 10° ENE visible
23 Sep ? 04:46:47 41° SSE 04:46:54 41° SE 04:50:24 10° ENE visible
24 Sep ? 04:14:55 22° E 04:14:55 22° E 04:16:31 10° ENE visible
24 Sep ? 05:48:47 13° W 05:51:38 35° NNW 05:55:03 10° NE visible
25 Sep ? 05:16:45 32° WNW 05:17:43 39° NNW 05:21:13 10° NE visible
